Flag for Switzerland Weather past 2 weeks in Delémont, Jura, Switzerland

Now
42 °F

Quite cool.


Feels Like: 39 °F
Forecast: 47 / 51 °F
Wind: 5 mph from Southwest

Location: Grenchen

Current Time: Dec 18, 2014 at 3:36:48 AM

Latest Report: Dec 18, 2014 at 3:00 AM


Visibility: N/A

Pressure: 30.15 "Hg

Humidity: 98%

Dew point: 41 °F

Location of DelémontLocation

Historic Weather in Delémont — Graph

°F

Delémont temperature yesterday

Maximum temperature yesterday: 44 °F (at 12:00 AM)
Minimum temperature yesterday: 38 °F (at 5:00 AM)
Average temperature yesterday: 40 °F

Past Weeks' High & Low Weather Summary

 TemperatureHumidityPressure
High48 °F (Dec 15, 4:00 PM)100% (Dec 10, 2:00 AM)30.50 "Hg (Dec 10, 2:00 AM)
Low27 °F (Dec 10, 5:00 AM)68% (Dec 8, 5:00 PM)29.91 "Hg (Dec 12, 4:00 PM)
Average39 °F91%30.12 "Hg
* Reported Dec 3 2:00 AM — Dec 18 2:00 AM, Delémont, Weather by CustomWeather, © 2014

Note: Actual official high and low records may vary slightly from our data, if they occured in-between our weather recording intervals... More about our weather records

Advertising

Delémont weather history for previous 24 hours

 ConditionsComfort  
Time TempWeatherWind HumidityBarometerVisibility
2:00 AM
Dec 18
42 °FQuite cool.6 mph100%30.14 "HgN/A
1:00 AM42 °FQuite cool.7 mph99%30.14 "HgN/A
12:00 AM41 °FQuite cool.5 mph99%30.13 "HgN/A
11:00 PM
Dec 17
41 °FQuite cool.7 mph98%30.12 "HgN/A
10:00 PM41 °FQuite cool.9 mph98%30.10 "HgN/A
9:00 PM41 °FQuite cool.12 mph98%30.09 "HgN/A
8:00 PM40 °FQuite cool.9 mph97%30.08 "HgN/A
7:00 PM40 °FQuite cool.10 mph97%30.05 "HgN/A
6:00 PM40 °FChilly.9 mph96%30.03 "HgN/A
5:00 PM40 °FChilly.15 mph93%30.00 "HgN/A
4:00 PM40 °FQuite cool.16 mph93%29.98 "HgN/A
3:00 PM40 °FQuite cool.22 mph91%29.98 "HgN/A
2:00 PM41 °FQuite cool.15 mph92%29.98 "HgN/A
1:00 PM40 °FQuite cool.14 mph91%30.01 "HgN/A
12:00 PM41 °FQuite cool.9 mph87%30.03 "HgN/A
11:00 AM41 °FQuite cool.10 mph88%30.04 "HgN/A
10:00 AM40 °FChilly.6 mph92%30.06 "HgN/A
9:00 AM39 °FChilly.8 mph94%30.06 "HgN/A
8:00 AM38 °FChilly.5 mph97%30.07 "HgN/A
7:00 AM39 °FChilly.5 mph97%30.07 "HgN/A
6:00 AM39 °FChilly.3 mph97%30.07 "HgN/A
5:00 AM38 °FChilly.5 mph95%30.06 "HgN/A
4:00 AM40 °FChilly.6 mph92%30.07 "HgN/A
3:00 AM41 °FQuite cool.2 mph88%30.07 "HgN/A
Weather by CustomWeather, © 2014

See weather overviewHow to use our weather pages